Weather History for EGXV - October, 2012

Change the Weather History Date:

Wednesday, October 3, 2012

  Actual Average Record
Temperature  
Mean Temperature 52 °F -  
Max Temperature 57 °F - - ()
Min Temperature 46 °F - - ()
Degree Days  
Heating Degree Days 14    
Growing Degree Days 2 (Base 50)    
Moisture  
Dew Point 44 °F    
Average Humidity 75    
Maximum Humidity 93    
Minimum Humidity 55    
Precipitation  
Precipitation 0.00 in - - ()
Sea Level Pressure  
Sea Level Pressure 29.51 in    
Wind  
Wind Speed 13 mph ()    
Max Wind Speed 18 mph    
Max Gust Speed 25 mph    
Visibility 6.1 miles    
Events Rain    
T = Trace of Precipitation, MM = Missing Value Source: Averaged Metar Reports

Daily Weather History Graph

Daily Weather History Graph

Search for Another Location

Airport or City:

Trip Planner

Search our weather history database for the weather conditions in past years. The results will help you decide how hot, cold, wet, or windy it might be!

Date:

Astronomy

Oct. 03, 2012 Rise Set
Actual Time 7:07 AM BST 6:32 PM BST
Civil Twilight 6:32 AM BST 7:07 PM BST
Nautical Twilight 5:51 AM BST 7:48 PM BST
Astronomical Twilight 5:09 AM BST 8:30 PM BST
Moon 7:37 PM BST (10/3) 10:52 AM BST (10/3)
Length of Visible Light 12h 34m
Length of Day
11h 24m
Waning Gibbous, 90% of the Moon is Illuminated
Oct 3
Waning Gibbous
Oct 8
Last Quarter
Oct 15
New
Oct 22
First Quarter
Oct 29
Full

Hourly Weather History & Observations

Time (BST) Temp. Windchill Dew Point Humidity Pressure Visibility Wind Dir Wind Speed Gust Speed Precip Events Conditions
12:50 AM 53.6 °F - 48.2 °F 82% 29.47 in 6.2 mi SSW 18.4 mph - N/A   Scattered Clouds
1:50 AM 51.8 °F - 46.4 °F 82% 29.47 in 6.2 mi SSW 17.3 mph - N/A   Mostly Cloudy
2:50 AM 50.0 °F - 44.6 °F 82% 29.47 in 6.2 mi SW 17.3 mph - N/A   Partly Cloudy
3:50 AM 48.2 °F - 44.6 °F 87% 29.47 in 6.2 mi SW 15.0 mph - N/A   Unknown
4:50 AM 48.2 °F - 44.6 °F 87% 29.47 in 6.2 mi SW 13.8 mph - N/A   Unknown
5:50 AM 48.2 °F - 42.8 °F 82% 29.47 in 6.2 mi SW 10.4 mph - N/A   Unknown
6:50 AM 46.4 °F 40.4 °F 42.8 °F 87% 29.47 in 6.2 mi SSW 13.8 mph - N/A   Unknown
7:50 AM 46.4 °F 41.5 °F 42.8 °F 87% 29.50 in 6.2 mi SSW 10.4 mph - N/A   Unknown
8:50 AM 50.0 °F - 42.8 °F 76% 29.50 in 6.2 mi SSW 12.7 mph - N/A   Unknown
9:50 AM 51.8 °F - 42.8 °F 71% 29.53 in 6.2 mi SW 15.0 mph - N/A   Unknown
11:50 AM 55.4 °F - 44.6 °F 67% 29.53 in 6.2 mi WSW 16.1 mph - N/A   Mostly Cloudy
12:50 PM 55.4 °F - 42.8 °F 63% 29.53 in 6.2 mi WSW 16.1 mph - N/A   Scattered Clouds
1:50 PM 57.2 °F - 42.8 °F 59% 29.53 in 6.2 mi WSW 17.3 mph - N/A   Mostly Cloudy
2:50 PM 57.2 °F - 42.8 °F 59% 29.53 in 6.2 mi SW 16.1 mph - N/A   Scattered Clouds
3:50 PM 57.2 °F - 41.0 °F 55% 29.53 in 6.2 mi SW 16.1 mph - N/A   Partly Cloudy
4:50 PM 57.2 °F - 42.8 °F 59% 29.50 in 6.2 mi SW 13.8 mph 25.3 mph N/A   Partly Cloudy
5:50 PM 55.4 °F - 41.0 °F 58% 29.50 in 6.2 mi SW 12.7 mph - N/A   Unknown
6:50 PM 53.6 °F - 41.0 °F 62% 29.53 in 6.2 mi SW 10.4 mph - N/A   Mostly Cloudy
7:50 PM 50.0 °F - 42.8 °F 76% 29.56 in 6.2 mi WSW 9.2 mph - N/A   Mostly Cloudy
8:50 PM 50.0 °F - 44.6 °F 82% 29.56 in 6.2 mi WSW 8.1 mph - N/A Rain Light Rain Showers
9:50 PM 46.4 °F 40.7 °F 44.6 °F 93% 29.56 in 3.7 mi West 12.7 mph - N/A Rain Rain Showers
11:50 PM 46.4 °F 41.5 °F 44.6 °F 93% 29.56 in 6.2 mi SW 10.4 mph - N/A   Scattered Clouds